This is the latest recevied weather packets stored in our database for station/object IK1QAD-3. If no packets are shown the sender has not sent any weather packets the latest 10 day(s).
| Time | Temp. | Humidity | Pressure | Rain* | Wind** | Luminosity | Snow |
|---|---|---|---|---|---|---|---|
| 1777729121 | 20° C | 44% | 1023.3 hPa | 0 mm | - | - | - |
| 1777728821 | 20° C | 48% | 1023.4 hPa | 0 mm | - | - | - |
| 1777728515 | 20.56° C | 41% | 1023.5 hPa | 0 mm | - | - | - |
| 1777728209 | 20° C | 45% | 1023.6 hPa | 0 mm | - | - | - |
| 1777727909 | 20° C | 45% | 1023.7 hPa | 0 mm | - | - | - |
| 1777727624 | 20° C | 49% | 1023.6 hPa | 0 mm | - | - | - |
| 1777727322 | 20° C | 49% | 1023.7 hPa | 0 mm | - | - | - |
| 1777727019 | 20° C | 46% | 1023.8 hPa | 0 mm | - | - | - |
| 1777726709 | 20° C | 49% | 1023.9 hPa | 0 mm | - | - | - |
| 1777726405 | 19.44° C | 49% | 1024 hPa | 0 mm | - | - | - |
| 1777726119 | 19.44° C | 48% | 1024 hPa | 0 mm | - | - | - |
| 1777725819 | 19.44° C | 49% | 1024 hPa | 0 mm | - | - | - |
| 1777725517 | 19.44° C | 50% | 1024.1 hPa | 0 mm | - | - | - |
| 1777725210 | 18.89° C | 50% | 1024.1 hPa | 0 mm | - | - | - |
| 1777724906 | 18.89° C | 50% | 1024.1 hPa | 0 mm | - | - | - |
| 1777724619 | 18.89° C | 48% | 1024.3 hPa | 0 mm | - | - | - |
| 1777724317 | 19.44° C | 50% | 1024.3 hPa | 0 mm | - | - | - |
| 1777724014 | 19.44° C | 50% | 1024.4 hPa | 0 mm | - | - | - |
| 1777723708 | 19.44° C | 52% | 1024.4 hPa | 0 mm | - | - | - |
| 1777723406 | 19.44° C | 50% | 1024.4 hPa | 0 mm | - | - | - |
| 1777723118 | 19.44° C | 48% | 1024.4 hPa | 0 mm | - | - | - |
| 1777722815 | 19.44° C | 46% | 1024.4 hPa | 0 mm | - | - | - |
| 1777722514 | 19.44° C | 49% | 1024.5 hPa | 0 mm | - | - | - |
| 1777722208 | 19.44° C | 48% | 1024.5 hPa | 0 mm | - | - | - |
| 1777721905 | 19.44° C | 48% | 1024.6 hPa | 0 mm | - | - | - |
* Rain latest hour (hover to see other rain measurements)
** Current wind speed in m/s (hover to see current wind gust speed)